Home > Weather > Portland > Past weeks

Flag for U.S.A. Weather for the Past 2 Weeks in Portland, Maine, U.S.A.

Now
15 °F

Light snow. Overcast.


Feels Like: 2 °F
Forecast: 1 / 20 °F
Wind: 10 mph from Northwest

Location: Portland - Portland International Jetport

Current Time: Feb 13, 2016 at 11:00:09 AM

Latest Report: Feb 13, 2016 at 9:51 AM


Visibility: 3 mi

Pressure: 29.78 "Hg

Humidity: 77%

Dew point: 9 °F

Location of PortlandLocation

Historic Weather in Portland — Graph

°F

Portland Temperature Yesterday

Maximum temperature yesterday: 20 °F (at 1:51 PM)
Minimum temperature yesterday: -1 °F (at 6:51 AM)
Average temperature yesterday: 12 °F

High & Low Weather Summary for the Past Weeks

 TemperatureHumidityPressure
High58 °F (Feb 1, 11:51 AM)100% (Feb 3, 10:51 PM)30.43 "Hg (Feb 3, 10:51 PM)
Low-1 °F (Feb 12, 6:51 AM)32% (Feb 12, 1:51 PM)29.36 "Hg (Jan 29, 1:51 PM)
Average30 °F71%29.91 "Hg
* Reported Jan 29 9:51 AM — Feb 13 9:51 AM, Portland, Weather by CustomWeather, © 2016

Note: Actual official high and low records may vary slightly from our data, if they occured in-between our weather recording intervals... More about our weather records

Advertising

Portland Weather History for the Previous 24 Hours

 ConditionsComfort  
Time TempWeatherWind HumidityBarometerVisibility
9:51 AM
Sat, Feb 13
15 °FLight snow. Overcast.10 mph77%29.78 "Hg3 mi
8:51 AM12 °FOvercast.8 mph70%29.79 "Hg10 mi
7:51 AM4 °FBroken clouds.6 mph80%29.80 "Hg10 mi
6:51 AM2 °FPassing clouds.No wind83%29.79 "Hg10 mi
5:51 AM3 °FOvercast.6 mph84%29.79 "Hg10 mi
4:51 AM4 °FPassing clouds.5 mph88%29.80 "Hg10 mi
3:51 AM4 °FClear.5 mph80%29.80 "Hg10 mi
2:51 AM5 °FClear.3 mph83%29.83 "Hg10 mi
1:51 AM7 °FClear.No wind79%29.85 "Hg10 mi
12:51 AM10 °FClear.No wind73%29.88 "Hg10 mi
11:51 PM
Fri, Feb 12
13 °FPassing clouds.5 mph61%29.90 "Hg10 mi
10:51 PM18 °FClear.3 mph49%29.91 "Hg10 mi
9:51 PM19 °FOvercast.3 mph47%29.93 "Hg10 mi
8:51 PM20 °FOvercast.3 mph48%29.96 "Hg10 mi
7:51 PM20 °FOvercast.7 mph48%29.99 "Hg10 mi
6:51 PM20 °FOvercast.7 mph45%30.01 "Hg10 mi
5:51 PM19 °FOvercast.6 mph47%30.01 "Hg10 mi
4:51 PM20 °FOvercast.7 mph41%30.02 "Hg10 mi
3:51 PM20 °FOvercast.6 mph41%30.03 "Hg10 mi
2:51 PM19 °FPartly sunny.10 mph41%30.04 "Hg10 mi
1:51 PM20 °FPartly sunny.No wind32%30.05 "Hg10 mi
12:51 PM17 °FPartly sunny.No wind37%30.06 "Hg10 mi
11:51 AM14 °FPartly sunny.No wind40%30.09 "Hg10 mi
Weather by CustomWeather, © 2016

See weather overviewHow to use our weather pages